User: anonymous   Login
Location: Caltech
(34.1382°N, 118.1253°W)
Time: 11:46:54
(UTC-07:00)
Language:

SL-08 R/B - Orbit

View from above orbital plane
View from above orbital plane
View from above satellite
View from above satellite

Ground track
Ground track

The orbit data is extracted from the following two-line orbital elements,

1 27561U 02054C   16242.52042007  .00000042  00000-0  20287-4 0  9996
2 27561  98.2179  14.2506 0046154 359.1066   1.0042 14.55550918729858
Epoch (UTC): 29 August 2016 12:29:24
Eccentricity: 0.0046154
inclination: 98.2179°
perigee height: 675 km
apogee height: 740 km
right ascension of ascending node: 14.2506°
argument of perigee: 359.1066°
revolutions per day: 14.55550918
mean anomaly at epoch: 1.0042°
orbit number at epoch: 72985

The dashed part of the orbit path shows where the satellite is in the earth's shadow,  

DLR